DLH357 LOWS-EDDC

Flight info

Callsign DLH357
Flight time 0h 36m
Altitude 28000
Route INROM DCT SIMBA Y700 NENUM DCT EPTEU L604 RUDNO L132 AGNAV/N0427F270 DCT SUPIL DCT KILNU/N0420F260 L132 ABKIS Q240 DRN
Aircraft A321/M-SDE3FGHIRWY/LB1

Departure

Time 2026-05-01 10:06
Airport Salzburg Airport (LOWS)

Arrival

Time 2026-05-01 10:42
Airport Dresden Airport (EDDC)
Time Latitude Longitude Altitude Speed Heading
2026-05-01 10:05 48.00743 13.16328 11345 ft 352 kts 11°
2026-05-01 10:06 48.03246 13.16430 11954 ft 361 kts 355°
2026-05-01 10:06 48.05694 13.15469 12584 ft 368 kts 339°
2026-05-01 10:06 48.07983 13.13712 13196 ft 373 kts 335°
2026-05-01 10:06 48.10279 13.11866 13817 ft 375 kts 335°
2026-05-01 10:07 48.12558 13.10028 14360 ft 378 kts 335°
2026-05-01 10:07 48.14884 13.08153 14881 ft 381 kts 335°
2026-05-01 10:07 48.17221 13.06271 15407 ft 383 kts 335°
2026-05-01 10:07 48.19577 13.04374 15934 ft 385 kts 335°
2026-05-01 10:08 48.24509 13.01316 16882 ft 384 kts 351°
2026-05-01 10:08 48.26284 13.00854 17168 ft 383 kts 355°
2026-05-01 10:08 48.28930 13.00280 17647 ft 386 kts 355°
2026-05-01 10:09 48.31594 12.99705 18073 ft 388 kts 355°
2026-05-01 10:09 48.34268 12.99127 18512 ft 390 kts 355°
2026-05-01 10:09 48.36958 12.98541 18924 ft 392 kts 355°
2026-05-01 10:09 48.39662 12.97943 19294 ft 394 kts 355°
2026-05-01 10:10 48.42377 12.97339 19689 ft 395 kts 355°
2026-05-01 10:10 48.45105 12.96730 20084 ft 397 kts 355°
2026-05-01 10:10 48.50594 12.95509 20879 ft 400 kts 355°
2026-05-01 10:11 48.53354 12.94894 21298 ft 402 kts 355°
2026-05-01 10:11 48.56128 12.94275 21719 ft 404 kts 355°
2026-05-01 10:11 48.58912 12.93663 22141 ft 406 kts 355°
2026-05-01 10:11 48.61713 12.93054 22565 ft 407 kts 355°
2026-05-01 10:12 48.64525 12.92447 22987 ft 409 kts 355°
2026-05-01 10:12 48.67316 12.91845 23366 ft 411 kts 355°
2026-05-01 10:12 48.73000 12.90613 24124 ft 415 kts 355°
2026-05-01 10:13 48.75903 12.89983 24451 ft 417 kts 355°
2026-05-01 10:13 48.78736 12.89360 24768 ft 418 kts 355°
2026-05-01 10:13 48.81624 12.88719 25089 ft 420 kts 355°
2026-05-01 10:14 48.87432 12.87426 25713 ft 424 kts 355°
2026-05-01 10:14 48.90358 12.86782 26018 ft 425 kts 355°
2026-05-01 10:14 48.93295 12.86141 26325 ft 427 kts 355°
2026-05-01 10:14 48.96239 12.85499 26621 ft 429 kts 355°
2026-05-01 10:15 48.99197 12.84848 26919 ft 430 kts 355°
2026-05-01 10:15 49.02161 12.84195 27200 ft 432 kts 355°
2026-05-01 10:15 49.05139 12.83534 27386 ft 433 kts 355°
2026-05-01 10:15 49.08094 12.82873 27428 ft 426 kts 355°
2026-05-01 10:16 49.11010 12.82211 27427 ft 423 kts 354°
2026-05-01 10:16 49.13873 12.81094 27412 ft 428 kts 344°
2026-05-01 10:16 49.19080 12.76529 27427 ft 440 kts 324°
2026-05-01 10:17 49.21292 12.73253 27431 ft 444 kts 319°
2026-05-01 10:17 49.25622 12.66528 27432 ft 444 kts 319°
2026-05-01 10:17 49.27793 12.63165 27427 ft 443 kts 320°
2026-05-01 10:18 49.32832 12.58102 27425 ft 430 kts 342°
2026-05-01 10:18 49.35671 12.56780 27420 ft 424 kts 353°
2026-05-01 10:18 49.38584 12.56294 27415 ft 419 kts
2026-05-01 10:19 49.41474 12.56633 27421 ft 415 kts 12°
2026-05-01 10:19 49.44304 12.57516 27418 ft 415 kts 14°
2026-05-01 10:19 49.47136 12.58415 27421 ft 415 kts 14°
2026-05-01 10:20 49.52798 12.60199 27423 ft 415 kts 14°
2026-05-01 10:20 49.55627 12.61090 27424 ft 415 kts 14°
2026-05-01 10:20 49.58471 12.61952 27426 ft 416 kts 13°
2026-05-01 10:20 49.61321 12.62703 27425 ft 416 kts 12°
2026-05-01 10:21 49.64184 12.63383 27430 ft 416 kts 11°
2026-05-01 10:21 49.69912 12.64672 27429 ft 416 kts 11°
2026-05-01 10:21 49.72775 12.65334 27427 ft 416 kts 11°
2026-05-01 10:22 49.78495 12.66719 27425 ft 416 kts 12°
2026-05-01 10:22 49.84203 12.68134 27423 ft 416 kts 12°
2026-05-01 10:23 49.87062 12.68846 27427 ft 416 kts 12°
2026-05-01 10:23 49.92772 12.70267 27421 ft 415 kts 12°
2026-05-01 10:23 49.95628 12.70973 27422 ft 416 kts 12°
2026-05-01 10:24 50.01335 12.72377 26759 ft 411 kts 12°
2026-05-01 10:24 50.06930 12.73763 25510 ft 403 kts 12°
2026-05-01 10:25 50.12420 12.75128 24246 ft 397 kts 12°
2026-05-01 10:25 50.17832 12.76471 22974 ft 392 kts 12°
2026-05-01 10:26 50.20511 12.77137 22401 ft 389 kts 12°
2026-05-01 10:26 50.23179 12.77802 21834 ft 386 kts 12°
2026-05-01 10:26 50.28449 12.79115 20729 ft 381 kts 12°
2026-05-01 10:27 50.33654 12.80424 19673 ft 376 kts 12°
2026-05-01 10:27 50.38602 12.82670 18607 ft 367 kts 28°
2026-05-01 10:28 50.40805 12.84621 18081 ft 364 kts 33°
2026-05-01 10:28 50.45085 12.88688 17136 ft 359 kts 33°
2026-05-01 10:28 50.47221 12.90713 16682 ft 357 kts 33°
2026-05-01 10:29 50.51449 12.94723 15767 ft 352 kts 33°
2026-05-01 10:29 50.53538 12.96708 15304 ft 350 kts 33°
2026-05-01 10:30 50.57677 13.00652 14373 ft 345 kts 33°
2026-05-01 10:30 50.61757 13.04548 13360 ft 341 kts 33°
2026-05-01 10:31 50.65422 13.09117 12348 ft 334 kts 43°
2026-05-01 10:31 50.68880 13.13934 11462 ft 324 kts 43°
2026-05-01 10:32 50.72100 13.18415 11214 ft 294 kts 43°
2026-05-01 10:32 50.73602 13.20508 11084 ft 281 kts 43°
2026-05-01 10:32 50.76452 13.24497 10582 ft 269 kts 43°
2026-05-01 10:33 50.79239 13.28408 10236 ft 267 kts 43°
2026-05-01 10:33 50.82015 13.32310 9965 ft 267 kts 43°
2026-05-01 10:34 50.83402 13.34255 9831 ft 266 kts 43°
2026-05-01 10:34 50.84786 13.36196 9593 ft 267 kts 43°
2026-05-01 10:34 50.86170 13.38141 9130 ft 266 kts 43°
2026-05-01 10:35 50.88940 13.42041 8218 ft 266 kts 43°
2026-05-01 10:35 50.90317 13.43983 7781 ft 266 kts 43°
2026-05-01 10:35 50.91688 13.45919 7436 ft 262 kts 43°
2026-05-01 10:35 50.93023 13.47801 7017 ft 247 kts 44°
2026-05-01 10:36 50.95432 13.51198 6676 ft 224 kts 44°
2026-05-01 10:36 50.96566 13.52802 6481 ft 213 kts 44°
2026-05-01 10:36 50.97674 13.54374 6014 ft 215 kts 44°
2026-05-01 10:37 50.98772 13.55931 5943 ft 208 kts 44°
2026-05-01 10:37 50.99790 13.59880 5135 ft 208 kts 98°
2026-05-01 10:37 51.00050 13.62067 4558 ft 207 kts 60°
2026-05-01 10:38 51.01224 13.63454 3560 ft 222 kts 19°
2026-05-01 10:38 51.02742 13.63838 3117 ft 209 kts
2026-05-01 10:38 51.04065 13.64388 2731 ft 191 kts 22°
2026-05-01 10:38 51.05123 13.65358 2654 ft 164 kts 39°
2026-05-01 10:39 51.05940 13.66529 2636 ft 157 kts 44°
2026-05-01 10:39 51.06753 13.67686 2363 ft 156 kts 40°
2026-05-01 10:39 51.07581 13.68778 2105 ft 151 kts 39°
2026-05-01 10:39 51.08375 13.69851 1871 ft 149 kts 41°
2026-05-01 10:40 51.09152 13.70920 1672 ft 147 kts 41°
2026-05-01 10:40 51.09922 13.71989 1472 ft 147 kts 40°
2026-05-01 10:40 51.10703 13.73052 1261 ft 148 kts 39°
2026-05-01 10:40 51.11482 13.74131 1071 ft 148 kts 40°
2026-05-01 10:41 51.12270 13.75205 921 ft 150 kts 39°
2026-05-01 10:41 51.13052 13.76279 776 ft 145 kts 38°
2026-05-01 10:41 51.14234 13.77879 712 ft 51 kts 44°
2026-05-01 10:42 51.14375 13.78110 698 ft 19 kts 78°
2026-05-01 10:42 51.14311 13.78275 702 ft 17 kts 128°
2026-05-01 10:42 51.14239 13.78356 701 ft 0 kts 162°
2026-05-01 10:42 51.14232 13.78357 698 ft 6 kts 177°
2026-05-01 10:43 51.14112 13.78207 716 ft 33 kts 222°
2026-05-01 10:43 51.13930 13.77960 716 ft 34 kts 219°
2026-05-01 10:43 51.13749 13.77714 716 ft 34 kts 221°
2026-05-01 10:43 51.13581 13.77479 722 ft 30 kts 221°
2026-05-01 10:44 51.13434 13.77277 732 ft 25 kts 219°
2026-05-01 10:44 51.13312 13.77111 742 ft 20 kts 221°
2026-05-01 10:44 51.13215 13.76978 745 ft 17 kts 220°
2026-05-01 10:44 51.13129 13.76860 749 ft 15 kts 221°
2026-05-01 10:45 51.13038 13.76733 748 ft 26 kts 221°
2026-05-01 10:45 51.12906 13.76551 752 ft 19 kts 221°
2026-05-01 10:45 51.12817 13.76454 752 ft 13 kts 186°
2026-05-01 10:45 51.12748 13.76536 750 ft 13 kts 131°
2026-05-01 10:46 51.12691 13.76642 750 ft 11 kts 130°
2026-05-01 10:46 51.12660 13.76682 752 ft 4 kts 174°
2026-05-01 10:46 51.12639 13.76662 749 ft 5 kts 217°
2026-05-01 10:46 51.12608 13.76622 748 ft 2 kts 221°
2026-05-01 10:47 51.12600 13.76610 748 ft 1 kts 220°
2026-05-01 10:47 51.12596 13.76605 752 ft 0 kts 220°
2026-05-01 10:47 51.12595 13.76604 753 ft 0 kts 220°